FLX76 SBSV-SDIH

Flight info

Callsign FLX76
Flight time N/A
Altitude 28000
Route GEKEV DCT MOTBO DCT OPTEB DCT AROVA DCT EDMUS
Aircraft TBM8/L-SDFGRWY/S

Departure

Time 2026-05-04 23:56
Airport Deputado Luiz Eduardo Magalhães International Airport (SBSV)

Arrival

Time N/A
Airport Fazenda Irohy Airport (SDIH)
Time Latitude Longitude Altitude Speed Heading
2026-05-04 23:40 -12.91061 -38.34410 38 ft 0 kts 234°
2026-05-04 23:43 -12.91055 -38.34423 38 ft 7 kts 309°
2026-05-04 23:43 -12.91054 -38.34429 38 ft 0 kts 238°
2026-05-04 23:47 -12.91055 -38.34429 38 ft 0 kts 241°
2026-05-04 23:50 -12.91050 -38.34422 38 ft 3 kts 248°
2026-05-04 23:50 -12.91046 -38.34404 38 ft 3 kts 284°
2026-05-04 23:51 -12.91054 -38.34387 38 ft 3 kts 317°
2026-05-04 23:51 -12.91067 -38.34376 38 ft 1 kts 325°
2026-05-04 23:51 -12.91072 -38.34373 38 ft 0 kts 325°
2026-05-04 23:53 -12.90998 -38.34395 38 ft 15 kts 344°
2026-05-04 23:53 -12.90924 -38.34383 39 ft 10 kts 49°
2026-05-04 23:54 -12.90893 -38.34347 41 ft 3 kts 57°
2026-05-04 23:54 -12.90891 -38.34345 41 ft 0 kts 57°
2026-05-04 23:55 -12.90874 -38.34307 42 ft 6 kts 102°
2026-05-04 23:55 -12.90944 -38.34247 42 ft 29 kts 143°
2026-05-04 23:55 -12.91790 -38.33619 116 ft 107 kts 145°
2026-05-04 23:56 -12.92442 -38.33205 400 ft 119 kts 160°
2026-05-04 23:56 -12.93248 -38.33363 749 ft 135 kts 217°
2026-05-04 23:56 -12.93624 -38.34293 984 ft 160 kts 260°
2026-05-04 23:56 -12.93798 -38.35526 1108 ft 178 kts 259°
2026-05-04 23:57 -12.93962 -38.36797 1391 ft 185 kts 259°
2026-05-04 23:57 -12.94121 -38.38092 1791 ft 184 kts 259°
2026-05-04 23:57 -12.94277 -38.39406 2154 ft 186 kts 259°
2026-05-04 23:57 -12.94426 -38.40731 2543 ft 188 kts 259°
2026-05-04 23:58 -12.94637 -38.42046 2936 ft 186 kts 248°
2026-05-04 23:58 -12.95129 -38.43277 3249 ft 188 kts 242°
2026-05-04 23:58 -12.95626 -38.44514 3613 ft 186 kts 243°
2026-05-04 23:58 -12.96126 -38.45745 3916 ft 188 kts 242°
2026-05-04 23:59 -12.96631 -38.46998 4215 ft 191 kts 242°
2026-05-04 23:59 -12.97158 -38.48239 4524 ft 190 kts 240°
2026-05-04 23:59 -12.97708 -38.49478 4866 ft 191 kts 240°
2026-05-04 23:59 -12.98255 -38.50700 5172 ft 192 kts 240°
2026-05-05 00:00 -12.98832 -38.51945 5488 ft 193 kts 239°
2026-05-05 00:00 -12.99030 -38.52366 5585 ft 193 kts 239°
2026-05-05 00:00 -12.99998 -38.54442 6078 ft 195 kts 239°
2026-05-05 00:00 -13.00584 -38.55702 6380 ft 196 kts 239°
2026-05-05 00:01 -13.01171 -38.56964 6696 ft 197 kts 239°
2026-05-05 00:01 -13.01761 -38.58233 6981 ft 198 kts 239°
2026-05-05 00:01 -13.02357 -38.59513 7268 ft 199 kts 240°
2026-05-05 00:01 -13.02953 -38.60797 7561 ft 200 kts 240°
2026-05-05 00:02 -13.03549 -38.62078 7846 ft 202 kts 240°
2026-05-05 00:02 -13.04155 -38.63383 8130 ft 203 kts 240°
2026-05-05 00:02 -13.04775 -38.64715 8422 ft 205 kts 240°
2026-05-05 00:02 -13.05383 -38.66024 8711 ft 207 kts 240°
2026-05-05 00:03 -13.06003 -38.67358 8986 ft 209 kts 240°
2026-05-05 00:03 -13.06632 -38.68712 9269 ft 211 kts 240°
2026-05-05 00:03 -13.07264 -38.70075 9559 ft 212 kts 240°
2026-05-05 00:03 -13.07899 -38.71440 9843 ft 213 kts 240°
2026-05-05 00:04 -13.08540 -38.72821 10115 ft 214 kts 240°
2026-05-05 00:04 -13.09247 -38.74164 10366 ft 213 kts 233°
2026-05-05 00:04 -13.10059 -38.75444 10630 ft 214 kts 233°
2026-05-05 00:04 -13.10858 -38.76739 10892 ft 216 kts 234°
2026-05-05 00:05 -13.11661 -38.78050 11155 ft 217 kts 234°
2026-05-05 00:05 -13.12460 -38.79349 11411 ft 218 kts 234°
2026-05-05 00:05 -13.13274 -38.80669 11666 ft 220 kts 234°
2026-05-05 00:05 -13.14093 -38.82000 11925 ft 221 kts 234°
2026-05-05 00:06 -13.14918 -38.83339 12174 ft 222 kts 234°
2026-05-05 00:06 -13.15745 -38.84684 12422 ft 223 kts 233°
2026-05-05 00:06 -13.16577 -38.86036 12684 ft 224 kts 234°
2026-05-05 00:06 -13.17414 -38.87396 12946 ft 226 kts 234°
2026-05-05 00:07 -13.18242 -38.88741 13203 ft 227 kts 234°
2026-05-05 00:07 -13.19088 -38.90116 13462 ft 228 kts 234°
2026-05-05 00:07 -13.19938 -38.91497 13720 ft 229 kts 234°
2026-05-05 00:07 -13.20791 -38.92886 13963 ft 231 kts 234°
2026-05-05 00:08 -13.21650 -38.94282 14192 ft 231 kts 234°
2026-05-05 00:08 -13.22508 -38.95678 14418 ft 232 kts 234°
2026-05-05 00:08 -13.23372 -38.97084 14645 ft 233 kts 234°
2026-05-05 00:08 -13.24235 -38.98488 14878 ft 233 kts 235°
2026-05-05 00:09 -13.25100 -38.99896 15099 ft 234 kts 235°
2026-05-05 00:09 -13.25967 -39.01306 15334 ft 234 kts 235°
2026-05-05 00:09 -13.26837 -39.02723 15558 ft 234 kts 235°
2026-05-05 00:09 -13.27707 -39.04139 15796 ft 235 kts 236°
2026-05-05 00:10 -13.28581 -39.05562 16019 ft 236 kts 236°
2026-05-05 00:10 -13.29456 -39.06986 16255 ft 236 kts 236°
2026-05-05 00:10 -13.30322 -39.08397 16467 ft 237 kts 236°
2026-05-05 00:10 -13.31204 -39.09834 16688 ft 238 kts 236°
2026-05-05 00:11 -13.32086 -39.11273 16933 ft 238 kts 236°
2026-05-05 00:11 -13.32972 -39.12717 17148 ft 239 kts 236°
2026-05-05 00:11 -13.33860 -39.14163 17393 ft 239 kts 236°
2026-05-05 00:11 -13.34747 -39.15609 17623 ft 240 kts 236°
2026-05-05 00:12 -13.35337 -39.16570 17764 ft 241 kts 237°
2026-05-05 00:12 -13.36230 -39.18027 17994 ft 241 kts 237°
2026-05-05 00:12 -13.37430 -39.19986 18298 ft 242 kts 236°
2026-05-05 00:12 -13.38022 -39.20950 18463 ft 241 kts 237°
2026-05-05 00:13 -13.38915 -39.22408 18659 ft 242 kts 236°
2026-05-05 00:13 -13.39814 -39.23873 18843 ft 242 kts 237°
2026-05-05 00:13 -13.40714 -39.25342 19044 ft 242 kts 237°
2026-05-05 00:13 -13.41613 -39.26813 19214 ft 244 kts 237°
2026-05-05 00:14 -13.42516 -39.28285 19402 ft 244 kts 237°
2026-05-05 00:14 -13.43421 -39.29764 19575 ft 246 kts 237°
2026-05-05 00:14 -13.44334 -39.31252 19766 ft 246 kts 237°
2026-05-05 00:14 -13.45246 -39.32740 19955 ft 246 kts 237°
2026-05-05 00:15 -13.46152 -39.34229 20135 ft 247 kts 238°
2026-05-05 00:15 -13.47064 -39.35726 20314 ft 247 kts 238°
2026-05-05 00:15 -13.47965 -39.37203 20501 ft 247 kts 237°
2026-05-05 00:15 -13.48880 -39.38701 20678 ft 248 kts 237°
2026-05-05 00:16 -13.49796 -39.40205 20863 ft 249 kts 238°
2026-05-05 00:16 -13.50715 -39.41714 21036 ft 249 kts 238°
2026-05-05 00:16 -13.51637 -39.43227 21224 ft 249 kts 238°
2026-05-05 00:16 -13.52562 -39.44743 21391 ft 250 kts 238°
2026-05-05 00:17 -13.53483 -39.46257 21575 ft 250 kts 238°
2026-05-05 00:17 -13.54412 -39.47781 21747 ft 251 kts 238°
2026-05-05 00:17 -13.55337 -39.49301 21928 ft 252 kts 238°
2026-05-05 00:17 -13.56269 -39.50831 22099 ft 252 kts 238°
2026-05-05 00:18 -13.57202 -39.52363 22273 ft 253 kts 239°
2026-05-05 00:18 -13.58136 -39.53898 22447 ft 253 kts 239°
2026-05-05 00:18 -13.59062 -39.55415 22643 ft 253 kts 239°
2026-05-05 00:18 -13.60002 -39.56951 22848 ft 254 kts 239°
2026-05-05 00:19 -13.60936 -39.58494 23056 ft 254 kts 239°
2026-05-05 00:19 -13.61875 -39.60044 23249 ft 255 kts 239°
2026-05-05 00:19 -13.62818 -39.61594 23455 ft 255 kts 239°
2026-05-05 00:19 -13.63763 -39.63145 23641 ft 256 kts 239°
2026-05-05 00:20 -13.64710 -39.64703 23811 ft 257 kts 240°
2026-05-05 00:20 -13.65659 -39.66265 23963 ft 258 kts 239°
2026-05-05 00:20 -13.66611 -39.67832 24122 ft 258 kts 239°
2026-05-05 00:20 -13.67560 -39.69395 24291 ft 258 kts 239°
2026-05-05 00:21 -13.68515 -39.70967 24434 ft 259 kts 240°
2026-05-05 00:21 -13.69466 -39.72534 24615 ft 259 kts 240°
2026-05-05 00:21 -13.70411 -39.74089 24743 ft 260 kts 240°
2026-05-05 00:21 -13.71370 -39.75668 24900 ft 260 kts 239°
2026-05-05 00:22 -13.72330 -39.77251 25030 ft 262 kts 239°